Asheville, NC

2:43 PM EDT on September 26, 2017 (GMT -0400)
Asheville Regional

Weather History for KAVL - November, 2011

Change the Weather History Date:

Monday, November 28, 2011

  Actual Average Record
Temperature  
Mean Temperature 51 °F 44 °F  
Max Temperature 60 °F 54 °F 72 °F (1970)
Min Temperature 42 °F 33 °F 12 °F (1936)
Degree Days  
Heating Degree Days 14 22  
Month to date heating degree days 425 488  
Since 1 July heating degree days 786 823  
Cooling Degree Days 0 0  
Month to date cooling degree days 0 0  
Year to date cooling degree days 1201 862  
Growing Degree Days 1 (Base 50)    
Moisture  
Dew Point 53 °F    
Average Humidity 87    
Maximum Humidity 96    
Minimum Humidity 78    
Precipitation  
Precipitation 2.59 in 0.14 in 2.59 in (2011)
Month to date precipitation 5.32 3.37  
Year to date precipitation 40.93 41.70  
Snow  
Snow 0.00 in 0.00 in 2.00 in (1876)
Month to date snowfall 0.0 0.1  
Since 1 July snowfall 0.0 0.1  
Since 1 September snowfall 0.0 0.1  
Snow Depth 0.00 in    
Sea Level Pressure  
Sea Level Pressure 29.84 in    
Wind  
Wind Speed 11 mph (SSE)    
Max Wind Speed 22 mph    
Max Gust Speed 32 mph    
Visibility 6 miles    
Events Rain    
T = Trace of Precipitation, MM = Missing Value Source: NWS Daily Summary

Daily Weather History Graph

Daily Weather History Graph

Search for Another Location

Airport or City:

Trip Planner

Search our weather history database for the weather conditions in past years. The results will help you decide how hot, cold, wet, or windy it might be!

Date:

Astronomy

Nov. 28, 2011 Rise Set
Actual Time 7:17 AM EST 5:18 PM EST
Civil Twilight 6:50 AM EST 5:45 PM EST
Nautical Twilight 6:18 AM EST 6:17 PM EST
Astronomical Twilight 5:48 AM EST 6:47 PM EST
Moon 10:27 AM EST (11/28) 9:01 PM EST (11/28)
Length of Visible Light 10h 55m
Length of Day
10h 00m
Waxing Crescent, 15% of the Moon is Illuminated
Nov 28
Waxing Crescent
Dec 2
First Quarter
Dec 10
Full
Dec 17
Last Quarter
Dec 24
New

Hourly Weather History & Observations

Time (EST) Temp. Windchill Dew Point Humidity Pressure Visibility Wind Dir Wind Speed Gust Speed Precip Events Conditions
12:54 AM 60.1 °F - 53.1 °F 78% 29.91 in 10.0 mi SSE 11.5 mph 24.2 mph N/A   Overcast
1:01 AM 60.8 °F - 53.6 °F 77% 29.95 in 10.0 mi SSE 15.0 mph 25.3 mph N/A   Overcast
1:08 AM 60.8 °F - 53.6 °F 77% 29.95 in 10.0 mi SSE 13.8 mph 24.2 mph N/A   Overcast
1:54 AM 59.0 °F - 54.0 °F 83% 29.89 in 9.0 mi SSE 17.3 mph 24.2 mph 0.00 in Rain Light Rain
2:54 AM 57.9 °F - 54.0 °F 87% 29.89 in 10.0 mi SSE 12.7 mph 24.2 mph 0.02 in Rain Light Rain
3:32 AM 57.2 °F - 55.4 °F 94% 29.93 in 10.0 mi SSE 17.3 mph 29.9 mph 0.01 in Rain Light Rain
3:49 AM 59.0 °F - 55.4 °F 88% 29.93 in 10.0 mi SSE 15.0 mph 27.6 mph 0.01 in Rain Light Rain
3:54 AM 57.9 °F - 55.0 °F 90% 29.88 in 10.0 mi SSE 13.8 mph 24.2 mph 0.02 in Rain Light Rain
4:54 AM 57.9 °F - 55.0 °F 90% 29.88 in 9.0 mi SSE 13.8 mph 20.7 mph 0.06 in Rain Rain
5:33 AM 57.2 °F - 55.4 °F 94% 29.91 in 10.0 mi SSE 10.4 mph - 0.11 in Rain Light Rain
5:51 AM 57.2 °F - 55.4 °F 94% 29.91 in 8.0 mi SSE 12.7 mph - 0.12 in Rain Light Rain
5:54 AM 57.0 °F - 55.0 °F 93% 29.88 in 8.0 mi SSE 10.4 mph - 0.13 in Rain Light Rain
6:15 AM 57.2 °F - 55.4 °F 94% 29.91 in 6.0 mi SE 9.2 mph 18.4 mph 0.01 in Rain Light Rain
6:54 AM 57.0 °F - 55.0 °F 93% 29.89 in 6.0 mi SSE 10.4 mph 19.6 mph 0.08 in Rain Rain
7:07 AM 57.2 °F - 55.4 °F 94% 29.92 in 8.0 mi SE 10.4 mph 19.6 mph 0.03 in Rain Light Rain
7:40 AM 57.2 °F - 55.4 °F 94% 29.92 in 9.0 mi SSE 11.5 mph 18.4 mph 0.08 in Rain Light Rain
7:54 AM 57.0 °F - 55.0 °F 93% 29.87 in 8.0 mi SE 8.1 mph - 0.09 in Rain Light Rain
8:13 AM 57.2 °F - 55.4 °F 94% 29.92 in 4.0 mi SSE 11.5 mph 18.4 mph N/A Rain Rain
8:29 AM 57.2 °F - 55.4 °F 94% 29.93 in 2.5 mi SSE 10.4 mph 20.7 mph 0.05 in Rain Rain
8:33 AM 57.2 °F - 55.4 °F 94% 29.93 in 3.0 mi SSE 13.8 mph 20.7 mph 0.06 in Rain Light Rain
8:54 AM 57.0 °F - 55.0 °F 93% 29.88 in 3.0 mi SE 8.1 mph - 0.11 in Rain Light Rain
9:12 AM 57.2 °F - 55.4 °F 94% 29.91 in 4.0 mi SE 6.9 mph 19.6 mph N/A Rain Rain
9:50 AM 57.2 °F - 55.4 °F 94% 29.91 in 5.0 mi SE 9.2 mph 16.1 mph 0.09 in Rain Rain
9:54 AM 57.9 °F - 55.9 °F 93% 29.87 in 5.0 mi SE 9.2 mph - 0.10 in Rain Rain
10:14 AM 57.2 °F - 55.4 °F 94% 29.91 in 2.0 mi SSE 12.7 mph 20.7 mph 0.07 in Rain Heavy Rain
10:20 AM 57.2 °F - 55.4 °F 94% 29.91 in 2.5 mi SSE 9.2 mph 20.7 mph 0.11 in Rain Rain
10:27 AM 57.2 °F - 55.4 °F 94% 29.91 in 5.0 mi SE 8.1 mph 16.1 mph 0.13 in Rain Rain
10:35 AM 57.2 °F - 55.4 °F 94% 29.90 in 5.0 mi SE 8.1 mph 20.7 mph 0.14 in Rain Rain
10:54 AM 57.9 °F - 55.0 °F 90% 29.85 in 3.0 mi SE 8.1 mph 19.6 mph 0.23 in Rain Heavy Rain
11:04 AM 57.2 °F - 55.4 °F 94% 29.89 in 4.0 mi SE 8.1 mph 26.5 mph 0.03 in Rain Rain
11:11 AM 57.2 °F - 55.4 °F 94% 29.89 in 2.5 mi SE 10.4 mph 21.9 mph 0.05 in Rain Heavy Rain
11:14 AM 57.2 °F - 55.4 °F 94% 29.88 in 3.0 mi ESE 10.4 mph 21.9 mph N/A Rain Rain
11:27 AM 59.0 °F - 55.4 °F 88% 29.88 in 4.0 mi SE 11.5 mph 23.0 mph 0.10 in Rain Rain
11:52 AM 59.0 °F - 55.4 °F 88% 29.87 in 5.0 mi SE 13.8 mph 21.9 mph 0.16 in Rain Light Rain
11:54 AM 59.0 °F - 55.4 °F 88% 29.87 in 4.0 mi SE 15.0 mph 26.5 mph N/A Rain Rain
12:01 PM 59.0 °F - 55.4 °F 88% 29.87 in 3.0 mi SE 13.8 mph 26.5 mph 0.02 in Rain Rain
12:28 PM 57.2 °F - 55.4 °F 94% 29.86 in 2.5 mi SE 6.9 mph - N/A Rain Heavy Rain
12:39 PM 57.2 °F - 55.4 °F 94% 29.85 in 3.0 mi SSE 6.9 mph - N/A Rain Rain
12:54 PM 57.9 °F - 55.9 °F 93% 29.81 in 3.0 mi SE 8.1 mph - 0.18 in Rain Heavy Rain
1:13 PM 57.2 °F - 57.2 °F 100% 29.85 in 2.0 mi South 11.5 mph - 0.09 in Rain Heavy Rain
1:26 PM 57.2 °F - 57.2 °F 100% 29.85 in 3.0 mi SSE 9.2 mph 17.3 mph 0.17 in Rain Rain
1:36 PM 59.0 °F - 55.4 °F 88% 29.84 in 3.0 mi SSE 10.4 mph - 0.19 in Rain Rain
1:54 PM 59.0 °F - 55.9 °F 90% 29.78 in 4.0 mi SE 6.9 mph - 0.24 in Rain Rain
2:01 PM 59.0 °F - 57.2 °F 94% 29.81 in 4.0 mi SE 8.1 mph - 0.02 in Rain Rain
2:33 PM 59.0 °F - 57.2 °F 94% 29.80 in 5.0 mi SSE 10.4 mph 19.6 mph 0.10 in Rain Rain
2:41 PM 59.0 °F - 57.2 °F 94% 29.79 in 3.0 mi SSE 6.9 mph - 0.12 in Rain Rain
2:54 PM 59.0 °F - 57.0 °F 93% 29.75 in 9.0 mi SSE 10.4 mph 20.7 mph 0.14 in Rain Light Rain
3:01 PM 60.8 °F - 57.2 °F 88% 29.79 in 6.0 mi SSE 12.7 mph 20.7 mph 0.01 in Rain Rain
3:22 PM 60.8 °F - 57.2 °F 88% 29.76 in 6.0 mi SE 9.2 mph 21.9 mph 0.05 in Rain Light Rain
3:54 PM 60.1 °F - 55.9 °F 86% 29.72 in 10.0 mi SE 16.1 mph 32.2 mph 0.06 in Rain Light Rain
4:54 PM 59.0 °F - 55.9 °F 90% 29.69 in 6.0 mi ESE 11.5 mph 18.4 mph 0.14 in Rain Heavy Rain
5:02 PM 59.0 °F - 55.4 °F 88% 29.72 in 5.0 mi SE 13.8 mph 24.2 mph 0.04 in Rain Rain
5:18 PM 55.4 °F - 53.6 °F 94% 29.75 in 2.0 mi SSW 20.7 mph 27.6 mph 0.12 in Rain Heavy Rain
5:54 PM 52.0 °F - 50.0 °F 93% 29.71 in 2.0 mi South 11.5 mph - 0.26 in Rain Rain
6:01 PM 51.8 °F - 50.0 °F 94% 29.74 in 3.0 mi South 12.7 mph - N/A Rain Light Rain
6:17 PM 51.8 °F - 48.2 °F 88% 29.73 in 3.0 mi SSW 13.8 mph - 0.06 in Rain Light Rain
6:27 PM 51.8 °F - 48.2 °F 88% 29.74 in 3.0 mi SSW 17.3 mph 25.3 mph 0.09 in Rain Rain
6:54 PM 48.9 °F - 46.9 °F 93% 29.73 in 3.0 mi SSW 13.8 mph 25.3 mph 0.19 in Rain Heavy Rain
7:12 PM 48.2 °F - 44.6 °F 87% 29.79 in 6.0 mi South 17.3 mph 23.0 mph 0.05 in Rain Heavy Rain
7:54 PM 46.0 °F 41.0 °F 43.0 °F 89% 29.76 in 10.0 mi SSW 10.4 mph 18.4 mph 0.15 in Rain Light Rain
8:42 PM 44.6 °F 40.7 °F 44.6 °F 100% 29.78 in 5.0 mi South 6.9 mph - 0.07 in Rain Rain
8:54 PM 44.6 °F 39.2 °F 42.8 °F 93% 29.79 in 8.0 mi South 10.4 mph - N/A Rain Light Rain
9:03 PM 44.6 °F 39.7 °F 42.8 °F 93% 29.79 in 6.0 mi South 9.2 mph - 0.01 in Rain Rain
9:54 PM 43.0 °F 38.8 °F 41.0 °F 93% 29.75 in 7.0 mi SSE 6.9 mph - 0.08 in Rain Rain
10:54 PM 43.0 °F 40.3 °F 41.0 °F 93% 29.74 in 10.0 mi SSE 4.6 mph - 0.05 in Rain Light Rain
11:22 PM 42.8 °F 38.0 °F 41.0 °F 93% 29.77 in 10.0 mi South 8.1 mph - 0.02 in Rain Light Rain
11:52 PM 42.8 °F 38.0 °F 39.2 °F 87% 29.78 in 8.0 mi South 8.1 mph - 0.02 in Rain Light Rain
11:54 PM 42.8 °F 37.5 °F 41.0 °F 93% 29.78 in 8.0 mi SSW 9.2 mph - N/A Rain Light Rain